PROFILE

 METAR AND TAF INFORMATION
ADDS - METARS form results

(0546 UTC 22 September 2019)
http://aviationweather.gov/metar/data/
 
LEBL 220530Z 34006KT 290V020 9999 FEW027 19/17 Q1011 NOSIG
LEBL 220500Z 34006KT 9999 FEW027 19/17 Q1011 NOSIG
TAF LEBL 220500Z 2206/2306 33005KT 9999 FEW015 TX28/2212Z TN18/2206Z BECMG 2208/2210 23012KT TEMPO 2209/2215 23018KT PROB40 TEMPO 2215/2217 FEW030TCU TEMPO 2217/2221 23007KT BECMG 2221/2223 35007KT 

 AIRPORT MAP

 RUNWAY INFORMATION
Runway 02 Runway length 8333 ft Runway width 148 ft
Runway elevation 7 ft Runway displaced threshold 131 ft Runway heading 19
Runway 20 Runway length 8333 ft Runway width 148 ft
Runway elevation 12 ft Runway displaced threshold 0 ft Runway heading 199
Runway 07L Runway length 11654 ft Runway width 148 ft
Runway elevation 8 ft Runway displaced threshold 295 ft Runway heading 66
Runway 25R Runway length 11654 ft Runway width 148 ft
Runway elevation 10 ft Runway displaced threshold 0 ft Runway heading 246
Runway 07R Runway length 8727 ft Runway width 197 ft
Runway elevation 8 ft Runway displaced threshold 0 ft Runway heading 66
Runway 25L Runway length 8727 ft Runway width 197 ft
Runway elevation 8 ft Runway displaced threshold 0 ft Runway heading 246

 AIRPORT FREQUENCIES
Type APP Name APP Frequency 119.1 MHZ
Type ATIS Name ATIS Frequency 118.65 MHZ
Type CLD Name CLNC DEL Frequency 121.8 MHZ
Type GND Name GND Frequency 121.65 MHZ
Type TWR Name TWR Frequency 118.1 MHZ

 AIRPORT NEAR NAVIGATION AIDS
Type VOR-DME Name Barcelona Frequency 116700 KHZ
Type VOR-DME Name El Prat Frequency 114300 KHZ
Type VOR-DME Name Sabadell Frequency 112000 KHZ
Type NDB Name Villanueva Frequency 380 KHZ